Location: Spring Creek
(38.2870°N, 100.2160°W)
Time: 12:14:28
(UTC+00:00)

NPP - Pass Details

Date: 08 May 2021
Orbit: 826 x 827 km, 98.7° (Epoch: 22 June)

Event Time Altitude Azimuth Distance (km) Brightness Sun altitude
Rises 08:18:35 0° 14° (NNE) 3,374 7.9 -29.7°
Reaches altitude 10° 08:20:57 10° 16° (NNE) 2,436 7.0 -29.4°
Enters shadow 08:26:03 75° 65° (ENE) 857 3.7 -28.9°
